Pasco, WA

6:27 AM PDT on August 22, 2017 (GMT -0700)
Tri-Cities

Weather History for KPSC - June, 2013

Change the Weather History Date:

Monday, June 24, 2013

  Actual Average Record
Temperature  
Mean Temperature 66 °F 69 °F  
Max Temperature 73 °F 85 °F 107 °F (1992)
Min Temperature 59 °F 53 °F 42 °F (1904)
Degree Days  
Heating Degree Days 0 1  
Month to date heating degree days 19 32  
Since 1 June heating degree days 19 32  
Since 1 July heating degree days 4726 5022  
Cooling Degree Days 1 5  
Month to date cooling degree days 69 76  
Year to date cooling degree days 115 109  
Since 1 June cooling degree days 69 76  
Growing Degree Days 17 (Base 50)    
Moisture  
Dew Point 56 °F    
Average Humidity 73    
Maximum Humidity 100    
Minimum Humidity 46    
Precipitation  
Precipitation 0.02 in 0.01 in 0.29 in (1972)
Month to date precipitation 0.37 0.61  
Year to date precipitation 2.25 4.86  
Snow  
Snow 0.00 in - - ()
Snow Depth 0.00 in    
Sea Level Pressure  
Sea Level Pressure 29.65 in    
Wind  
Wind Speed 8 mph (SSE)    
Max Wind Speed 22 mph    
Max Gust Speed 25 mph    
Visibility 10 miles    
Events Rain    
T = Trace of Precipitation, MM = Missing Value Source: NWS Daily Summary

Daily Weather History Graph

Daily Weather History Graph

Search for Another Location

Airport or City:

Trip Planner

Search our weather history database for the weather conditions in past years. The results will help you decide how hot, cold, wet, or windy it might be!

Date:

Astronomy

Jun. 24, 2013 Rise Set
Actual Time 5:05 AM PDT 8:52 PM PDT
Civil Twilight 4:26 AM PDT 9:31 PM PDT
Nautical Twilight 3:33 AM PDT 10:23 PM PDT
Astronomical Twilight 2:19 AM PDT 11:38 PM PDT
Moon 9:49 PM PDT (6/24) 6:45 AM PDT (6/24)
Length of Visible Light 17h 04m
Length of Day
15h 46m
Full, 97% of the Moon is Illuminated
Jun 24
Full
Jun 29
Last Quarter
Jul 8
New
Jul 15
First Quarter
Jul 22
Full

Hourly Weather History & Observations

Time (PDT) Temp. Dew Point Humidity Pressure Visibility Wind Dir Wind Speed Gust Speed Precip Events Conditions
12:53 AM 63.0 °F 60.1 °F 90% 29.65 in 10.0 mi SSE 3.5 mph - 0.02 in Rain Light Rain
1:53 AM 62.1 °F 60.1 °F 93% 29.63 in 10.0 mi SE 5.8 mph - 0.00 in   Overcast
2:04 AM 62.6 °F 60.8 °F 94% 29.64 in 10.0 mi SE 5.8 mph - N/A   Overcast
2:53 AM 62.1 °F 60.1 °F 93% 29.62 in 10.0 mi SE 8.1 mph - N/A   Overcast
3:53 AM 61.0 °F 60.1 °F 97% 29.62 in 10.0 mi SSE 5.8 mph - N/A   Mostly Cloudy
4:53 AM 61.0 °F 60.1 °F 97% 29.62 in 10.0 mi SE 6.9 mph - 0.01 in   Overcast
5:53 AM 61.0 °F 60.1 °F 97% 29.62 in 10.0 mi SSE 6.9 mph - N/A   Overcast
6:53 AM 63.0 °F 60.1 °F 90% 29.62 in 10.0 mi SSE 5.8 mph - N/A   Overcast
7:53 AM 64.0 °F 59.0 °F 84% 29.62 in 10.0 mi SE 4.6 mph - 0.00 in Rain Light Rain
8:53 AM 64.9 °F 60.1 °F 84% 29.63 in 10.0 mi SSE 6.9 mph - 0.00 in Rain Light Rain
9:53 AM 66.0 °F 59.0 °F 78% 29.63 in 10.0 mi South 5.8 mph - 0.00 in   Mostly Cloudy
10:53 AM 69.1 °F 57.9 °F 68% 29.64 in 10.0 mi SSW 9.2 mph - N/A   Clear
11:53 AM 70.0 °F 55.9 °F 61% 29.64 in 10.0 mi SSW 12.7 mph - N/A   Scattered Clouds
12:53 PM 73.0 °F 51.1 °F 46% 29.63 in 10.0 mi SW 17.3 mph 23.0 mph N/A   Mostly Cloudy
1:53 PM 68.0 °F 48.9 °F 50% 29.65 in 10.0 mi SW 19.6 mph - N/A   Overcast
2:53 PM 64.0 °F 55.0 °F 73% 29.67 in 10.0 mi SSW 17.3 mph - 0.01 in Rain Light Rain
3:53 PM 66.9 °F 53.1 °F 61% 29.67 in 10.0 mi SSW 12.7 mph - 0.00 in   Overcast
4:53 PM 66.9 °F 51.1 °F 57% 29.67 in 10.0 mi South 11.5 mph - N/A   Overcast
5:53 PM 66.9 °F 51.1 °F 57% 29.67 in 10.0 mi SSE 13.8 mph - 0.00 in   Overcast
6:53 PM 66.0 °F 54.0 °F 65% 29.67 in 10.0 mi SE 18.4 mph - N/A   Mostly Cloudy
7:53 PM 66.9 °F 53.1 °F 61% 29.67 in 10.0 mi SE 12.7 mph - N/A   Clear
8:53 PM 64.0 °F 55.0 °F 73% 29.68 in 10.0 mi ESE 9.2 mph - N/A   Clear
9:53 PM 63.0 °F 55.0 °F 75% 29.69 in 10.0 mi SE 11.5 mph - N/A   Clear
10:53 PM 61.0 °F 54.0 °F 78% 29.70 in 10.0 mi ESE 9.2 mph - N/A   Clear
11:53 PM 59.0 °F 54.0 °F 83% 29.70 in 10.0 mi East 8.1 mph - N/A   Clear